Location: Elbart
(49.6135°N, 11.9134°E)
Time: 09:21:18
(UTC+00:00)

SPOT 1/Viking Rocket - Pass Details

Date: 09 April 2020
Orbit: 776 x 795 km, 98.5° (Epoch: 24 May)

Event Time Altitude Azimuth Distance (km) Brightness Sun altitude
Exits shadow 19:50:06 30° 121° (ESE) 1,396 4.3 -17.4°
Maximum altitude 19:52:16 47° 67° (ENE) 1,050 4.0 -17.7°
Drops below altitude 10° 19:57:16 10° 355° (N) 2,377 6.6 -18.3°
Sets 19:59:40 0° 350° (N) 3,311 7.6 -18.6°
